Date String (YYYY-MM-DD hh:mm:ss) UTC,Instrument flags,absolute air pressure of the measurement (hPa),sample flow rate (lpm),inlet stack bypass flow (lpm),air temperature of the measurement (°C),ambient temperature measured by the external sensor (°C),aerosol sample conditioner tube jacket temperature (°C),OPC LED temperature (°C),internal box temperature (°C),relative humidity of the measurement (%),span deviation,mass concentration of particles derived from Lorenz-Mie calculation of OPC scattering (μg/m³),mass concentration of particles derived from Lorenz-Mie calculation of OPC scattering (μg/m³),mass concentration of particles derived from Lorenz-Mie calculation of OPC scattering (μg/m³)
DateTimeUTC,F1_M11,P_M11,Q1_M11,Q2_M11,T1_M11,T2_M11,T3_M11,T4_M11,T5_M11,U1_M11,ZSPAN_M11,X0_M11,X2_M11,X1_M11
2024-01-01 14:00:00,SystemResetWarning,0831.1,4.99,000.00,018.9,018.1,000.0,027.3,020.1,15.2,0003.8,0008.29,0005.63,0005.32
2024-01-01 14:01:00,SystemResetWarning,0831.1,5.00,000.00,018.9,018.1,000.0,027.2,020.1,15.2,0000.8,0008.60,0005.56,0005.26
2024-01-01 14:02:00,SystemResetWarning,0831.2,5.01,000.00,018.9,018.1,000.0,027.2,020.1,15.2,0000.0,0009.11,0005.51,0005.20
2024-01-01 14:03:00,SystemResetWarning,0831.1,5.00,000.00,018.9,018.0,000.0,027.2,020.1,15.2,0000.0,0009.38,0005.46,0005.15
2024-01-01 14:04:00,SystemResetWarning,0831.2,5.01,000.00,018.9,018.0,000.0,027.2,020.1,15.2,0003.7,0009.42,0005.44,0005.12
2024-01-01 14:05:00,SystemResetWarning,0831.2,5.00,000.00,018.9,018.0,000.0,027.2,020.0,15.2,0003.8,0009.61,0005.43,0005.09
2024-01-01 14:06:00,SystemResetWarning,0831.1,5.00,000.00,018.9,018.0,000.0,027.2,020.0,15.2,0003.9,0009.84,0005.43,0005.07
2024-01-01 14:07:00,SystemResetWarning,0831.1,5.00,000.00,018.9,018.0,000.0,027.2,020.0,15.2,0004.1,0009.83,0005.40,0005.02
2024-01-01 14:08:00,SystemResetWarning,0831.1,5.00,000.00,018.9,017.9,000.0,027.2,020.0,15.2,0004.3,0009.71,0005.34,0004.98
2024-01-01 14:09:00,SystemResetWarning,0831.1,4.99,000.00,018.8,017.9,000.0,027.2,020.0,15.2,0000.3,0009.79,0005.31,0004.95
2024-01-01 14:10:00,SystemResetWarning,0831.1,4.99,000.00,018.8,017.9,000.0,027.2,020.0,15.2,0000.0,0009.81,0005.27,0004.91
2024-01-01 14:11:00,SystemResetWarning,0831.1,5.00,000.00,018.8,017.9,000.0,027.2,020.0,15.2,0000.0,0009.62,0005.21,0004.87
2024-01-01 14:12:00,SystemResetWarning,0831.1,5.00,000.00,018.8,017.9,000.0,027.2,020.0,15.2,0000.0,0009.21,0005.18,0004.84
2024-01-01 14:13:00,SystemResetWarning,0831.1,5.00,000.00,018.8,017.9,000.0,027.2,020.0,15.5,0000.0,0008.66,0005.16,0004.81
2024-01-01 14:14:00,SystemResetWarning,0831.1,5.01,000.00,018.8,017.9,000.0,027.2,020.0,15.6,0000.0,0008.25,0005.13,0004.79
2024-01-01 14:15:00,SystemResetWarning,0831.1,5.01,000.00,018.8,017.9,000.0,027.2,020.0,15.6,0000.0,0008.10,0005.09,0004.78
2024-01-01 14:16:00,SystemResetWarning,0831.1,5.00,000.00,018.8,017.9,000.0,027.2,020.0,15.6,0000.0,0007.93,0005.03,0004.76
2024-01-01 14:17:00,SystemResetWarning,0831.1,5.00,000.00,018.8,017.9,000.0,027.2,020.0,15.6,0000.0,0007.63,0004.98,0004.73
2024-01-01 14:18:00,SystemResetWarning,0831.1,4.99,000.00,018.8,017.9,000.0,027.2,020.0,15.6,0000.0,0007.58,0004.92,0004.70
2024-01-01 14:19:00,SystemResetWarning,0831.1,5.00,000.00,018.8,017.9,000.0,027.2,020.0,15.6,0000.0,0007.59,0004.88,0004.66
2024-01-01 14:20:00,SystemResetWarning,0831.1,4.99,000.00,018.8,017.9,000.0,027.2,020.0,15.6,0000.0,0007.42,0004.84,0004.62
2024-01-01 14:21:00,SystemResetWarning,0831.1,5.00,000.00,018.8,017.9,000.0,027.2,020.0,15.6,0000.0,0007.32,0004.80,0004.58
2024-01-01 14:22:00,SystemResetWarning,0831.1,5.00,000.00,018.8,017.9,000.0,027.2,020.0,15.6,0000.0,0007.32,0004.76,0004.54
2024-01-01 14:23:00,SystemResetWarning,0831.2,5.00,000.00,018.8,017.9,000.0,027.2,020.0,15.7,0000.0,0007.08,0004.69,0004.47
2024-01-01 14:24:00,SystemResetWarning,0831.2,5.01,000.00,018.8,017.9,000.0,027.2,020.0,15.6,0000.0,0006.79,0004.54,0004.32
2024-01-01 14:25:00,SystemResetWarning,0831.1,5.01,000.00,018.8,017.9,000.0,027.2,020.0,15.7,0000.0,0006.37,0004.33,0004.13
2024-01-01 14:26:00,SystemResetWarning,0831.2,5.01,000.00,018.8,017.9,000.0,027.2,020.0,15.6,0000.0,0005.90,0004.11,0003.93
2024-01-01 14:27:00,SystemResetWarning,0831.1,4.99,000.00,018.8,017.9,000.0,027.1,020.0,15.6,0000.0,0005.31,0003.92,0003.74
2024-01-01 14:28:00,SystemResetWarning,0831.1,5.00,000.00,018.8,017.9,000.0,027.1,020.0,15.6,0000.0,0005.09,0003.74,0003.56
2024-01-01 14:29:00,SystemResetWarning,0831.1,5.00,000.00,018.7,017.9,000.0,027.1,020.0,15.5,0000.0,0004.67,0003.57,0003.41
2024-01-01 14:30:00,SystemResetWarning,0831.1,4.99,000.00,018.7,017.9,000.0,027.1,020.0,15.5,0000.0,0004.28,0003.41,0003.26
2024-01-01 14:31:00,SystemResetWarning,0831.1,5.00,000.00,018.7,017.9,000.0,027.1,020.0,15.4,0000.0,0003.94,0003.24,0003.10
2024-01-01 14:32:00,SystemResetWarning,0831.1,4.99,000.00,018.7,017.9,000.0,027.1,020.0,15.4,0000.0,0003.70,0003.09,0002.89
2024-01-01 14:33:00,SystemResetWarning,0831.2,5.01,000.00,018.7,017.9,000.0,027.1,020.0,15.3,0000.0,0003.40,0002.84,0002.64
2024-01-01 14:34:00,SystemResetWarning,0831.1,5.01,000.00,018.7,017.9,000.0,027.1,020.0,15.3,0000.0,0003.13,0002.59,0002.40
2024-01-01 14:35:00,SystemResetWarning,0831.1,5.00,000.00,018.7,017.9,000.0,027.1,020.0,15.2,0000.0,0003.12,0002.51,0002.33
2024-01-01 14:36:00,SystemResetWarning,0831.1,5.00,000.00,018.7,017.9,000.0,027.1,020.0,15.2,0000.0,0003.27,0002.54,0002.34
2024-01-01 14:37:00,SystemResetWarning,0831.1,4.99,000.00,018.7,017.9,000.0,027.1,020.0,15.2,0000.0,0003.33,0002.58,0002.36
2024-01-01 14:38:00,SystemResetWarning,0831.1,4.99,000.00,018.7,017.9,000.0,027.1,020.0,15.2,0000.0,0003.31,0002.56,0002.33
2024-01-01 14:39:00,SystemResetWarning,0831.1,5.00,000.00,018.7,017.9,000.0,027.1,020.0,15.2,0000.0,0003.19,0002.53,0002.30
2024-01-01 14:40:00,SystemResetWarning,0831.1,5.01,000.00,018.7,017.9,000.0,027.1,020.0,15.2,0000.0,0003.18,0002.49,0002.24
2024-01-01 14:41:00,SystemResetWarning,0831.1,5.01,000.00,018.7,017.9,000.0,027.1,020.0,15.2,0000.0,0003.44,0002.48,0002.22
2024-01-01 14:42:00,SystemResetWarning,0831.1,5.00,000.00,018.7,017.9,000.0,027.1,020.0,15.2,0000.0,0003.49,0002.45,0002.18
2024-01-01 14:43:00,SystemResetWarning,0831.0,4.99,000.00,018.7,017.9,000.0,027.1,020.0,15.2,0000.0,0003.40,0002.40,0002.12
2024-01-01 14:44:00,SystemResetWarning,0831.0,4.99,000.00,018.7,018.0,000.0,027.1,020.0,15.2,0000.0,0003.34,0002.40,0002.10
2024-01-01 14:45:00,SystemResetWarning,0831.0,4.99,000.00,018.7,018.0,000.0,027.1,020.0,15.2,0000.0,0003.29,0002.39,0002.09
2024-01-01 14:46:00,SystemResetWarning,0831.0,5.01,000.00,018.7,018.0,000.0,027.1,020.0,15.2,0000.0,0003.21,0002.40,0002.11
2024-01-01 14:47:00,SystemResetWarning,0831.0,5.01,000.00,018.7,018.0,000.0,027.1,020.0,15.2,0000.0,0003.23,0002.42,0002.11
2024-01-01 14:48:00,SystemResetWarning,0831.0,4.99,000.00,018.7,018.0,000.0,027.1,020.0,15.2,0000.0,0003.22,0002.41,0002.12
2024-01-01 14:49:00,SystemResetWarning,0831.0,4.99,000.00,018.7,018.0,000.0,027.1,020.0,15.2,0000.0,0003.23,0002.42,0002.12
2024-01-01 14:50:00,SystemResetWarning,0831.0,4.99,000.00,018.7,018.0,000.0,027.1,020.0,15.2,0000.0,0003.25,0002.45,0002.15
2024-01-01 14:51:00,SystemResetWarning,0830.9,5.00,000.00,018.7,018.0,000.0,027.1,020.0,15.2,0000.0,0003.27,0002.46,0002.15
2024-01-01 14:52:00,SystemResetWarning,0830.9,5.00,000.00,018.7,018.0,000.0,027.1,020.0,15.2,0000.0,0002.96,0002.42,0002.14
2024-01-01 14:53:00,SystemResetWarning,0831.0,5.00,000.00,018.7,018.0,000.0,027.1,020.0,15.2,0000.0,0002.88,0002.41,0002.14
2024-01-01 14:54:00,SystemResetWarning,0830.9,5.00,000.00,018.7,018.0,000.0,027.1,020.0,15.2,0000.0,0002.83,0002.38,0002.13
2024-01-01 14:55:00,SystemResetWarning,0830.9,5.00,000.00,018.7,018.0,000.0,027.1,020.0,15.2,0000.0,0002.75,0002.31,0002.09
2024-01-01 14:56:00,SystemResetWarning,0830.9,5.00,000.00,018.7,018.1,000.0,027.1,020.0,15.2,0000.0,0002.79,0002.30,0002.06
2024-01-01 14:57:00,SystemResetWarning,0831.0,5.00,000.00,018.8,018.1,000.0,027.1,020.0,15.2,0000.0,0002.70,0002.23,0002.02
2024-01-01 14:58:00,SystemResetWarning,0831.0,5.00,000.00,018.8,018.1,000.0,027.1,020.1,15.2,0000.0,0002.57,0002.18,0002.00
2024-01-01 14:59:00,SystemResetWarning,0831.0,5.01,000.00,018.8,018.1,000.0,027.1,020.1,15.2,0000.0,0002.65,0002.19,0001.98
